Miscellaneous Local Product
Issued by NWS North Platte, NE

Home | Current Version | Previous Version | Graphics & Text | Print | Product List | Glossary On
Versions: 1 2 3 4 5 6 7 8 9 10 11 12 13 14 15 16 17 18 19 20 21 22 23 24 25 26 27 28 29 30 31 32 33 34 35 36 37 38 39 40 41 42 43 44 45 46 47 48 49 50
042
AXUS43 KLBF 110110
MISLBF


WESTERN AND NORTH CENTRAL NEBRASKA HOURLY WEATHER ROUNDUP
NATIONAL WEATHER SERVICE NORTH PLATTE NE
700 PM CST WED FEB 10 2016

NOTE: "FAIR" INDICATES FEW OR NO CLOUDS BELOW 12,000 FEET WITH NO
SIGNIFICANT WEATHER AND/OR OBSTRUCTIONS TO VISIBILITY.

NOTE: STATIONS NOT REPORTING VARIABLES SUCH AS SKY/WEATHER OR
PRESSURE ARE PROVIDED BY THE NEBRASKA DEPARTMENT OF
ROADS...RAWS...AND APRS NETWORKS...AND ARE NOT UNDER
NATIONAL WEATHER SERVICE QUALITY CONTROL.

...OBSERVATIONS IN AND NEAR THE EASTERN PANHANDLE OF NEBRASKA...

CITY           SKY/WX    TMP DP  RH WIND       PRES   REMARKS
PINE RIDGE     CLOUDY    40  24  53 N6        30.03R
CHADRON        PTCLDY    46  25  43 N6        30.05R
ALLIANCE       CLOUDY    44  31  60 NW13      30.04R
SIDNEY         CLOUDY    39  29  67 NW14      30.08R WCI  31
CRESCENT LAKE    N/A     48  27  43 NW12        N/A
BIG SPRINGS      N/A     46  32  59 W3          N/A
$$

...OBSERVATIONS IN NORTH CENTRAL NEBRASKA...

CITY           SKY/WX    TMP DP  RH WIND       PRES   REMARKS
VALENTINE      CLEAR     38  30  73 NE12      30.04R WCI  30
THEDFORD       PTCLDY    47  28  48 N7        30.02R
AINSWORTH      CLEAR     38  31  73 N15       30.03R WCI  30
O`NEILL        CLOUDY    31  26  80 NE9       30.04R WCI  23
ORD            CLOUDY    37  30  75 N3        29.99R
BROKEN BOW     CLOUDY    42  29  59 N12       29.97R
VALENTINE NWR    N/A     44  28  53 N9G17       N/A
BUTTE            N/A     26  22  86 NE12        N/A  WCI  16
HALSEY           N/A     50  26  38 NW6G20      N/A
CHAMBERS         N/A     32  25  74 MISG        N/A
EWING            N/A     28  25  88 NE3         N/A
$$

...OBSERVATIONS IN SOUTHWEST NEBRASKA AND FAR NORTHEAST COLORADO...

CITY           SKY/WX    TMP DP  RH WIND       PRES   REMARKS
HOLYOKE        FAIR      45  28  53 W9        30.06R
IMPERIAL       CLOUDY    44  28  53 W12       30.02R
OGALLALA       CLOUDY    41  30  64 CALM      30.01R
NORTH PLATTE   CLOUDY    39  31  72 W6        29.98R WCI  35
MCCOOK         CLOUDY    44  30  57 W13       30.00R
LEXINGTON      CLOUDY    38  31  76 NW8       29.98R WCI  32
PAXTON           N/A     45  35  69 NW3         N/A
STAPLETON        N/A     43  30  60 CALM        N/A
GOTHENBURG       N/A     46  30  54 NW3         N/A
CALLAWAY         N/A     47  29  50 N9          N/A
$$

...OBSERVATIONS IN CENTRAL LINCOLN COUNTY AREA...

CITY           SKY/WX    TMP DP  RH WIND       PRES   REMARKS
N.P. AIRPORT   CLOUDY    39  31  72 W6        29.98R WCI  35
N.P. DOWNTOWN    N/A     45  35  67 CALM        N/A
N.P. SOUTHEAST   N/A     45  34  66 CALM        N/A
N.P. HILLCREST   N/A     47  32  56 N12         N/A
$$

...SOME OBSERVATIONS FROM AROUND THE REGION...

CITY           SKY/WX    TMP DP  RH WIND       PRES   REMARKS
DENVER         CLOUDY    53  17  24 W7        30.13R
LARAMIE        CLOUDY    36  18  48 W12       30.20S WCI  28
CHEYENNE       CLOUDY    44  16  32 NW15      30.16R
SCOTTSBLUFF    CLOUDY    42  28  57 NW9       30.08R
RAPID CITY     CLEAR     55  23  28 N12       30.05R
BISMARCK       CLOUDY    20  12  71 E7        30.18R WCI  11
PIERRE         CLOUDY    29  24  82 NE14      30.11R WCI  18
WINNER         MOCLDY    33  26  75 E6        30.07R WCI  28
SIOUX FALLS    CLOUDY    15   9  76 E10       30.13R WCI   2
OMAHA          PTCLDY    26  21  81 NE8       30.05R WCI  18
GRAND ISLAND   CLOUDY    35  30  82 NE16      29.98R WCI  25
KANSAS CITY    PTCLDY    40  21  46 E14       29.97R WCI  32
WICHITA        PTCLDY    57  29  34 NW10      29.92R
OKLAHOMA CITY  CLEAR     58  31  35 SW9       29.96S
LIBERAL        CLEAR     57  10  15 CALM      30.02S
HAYS           CLEAR     43  27  52 W10       29.98R
GOODLAND       CLOUDY    41  29  62 NW9       30.06R
$$




USA.gov is the U.S. government's official web portal to all federal, state and local government web resources and services.